Station TRDF1 - 8721604 - Trident Pier, FL Image indicating link to RSS feed of recent meteorological observations for station TRDF1


Conditions at TRDF1 as of
(4:30 am EDT)
0830 GMT on 05/30/2024:
     

Click on the graph icon in the table below to see a time series plot of the last five days of that observation.

5-day plot - Wind Direction Wind Direction (WDIR): W ( 280 deg true )
5-day plot - Wind Speed Wind Speed (WSPD): 2.9 kts
5-day plot - Wind Gust Wind Gust (GST): 4.1 kts
5-day plot - Atmospheric Pressure Atmospheric Pressure (PRES):30.00 in
5-day plot - Air Temperature Air Temperature (ATMP): 77.4 °F
5-day plot - Water Temperature Water Temperature (WTMP): 86.7 °F
5-day plot - Wind Speed at 10 Meters Wind Speed at 10 meters (WSPD10M): 3.9 kts
5-day plot - Wind Speed at 20 Meters Wind Speed at 20 meters (WSPD20M): 3.9 kts
5-day plot -  Wind Speed, Wind Gust and Atmospheric Pressure Combined plot of Wind Speed, Gust, and Air Pressure
NOS Water Level Observation Network Water Level
Previous observations
TIME
(EDT)
5-day plot - Wind Direction
WDIR
 
5-day plot - Wind Speed
WSPD
kts
5-day plot - Wind Gust
GST
kts
5-day plot - Wave Height
WVHT
ft
5-day plot - Dominant Wave Period
DPD
sec
5-day plot - Average Wave Period
APD
sec
5-day plot - Mean Wave Direction
MWD
 
5-day plot - Atmospheric Pressure
PRES
in
5-day plot - Pressure Tendency
PTDY
in
5-day plot - Air Temperature
ATMP
°F
5-day plot - Water Temperature
WTMP
°F
5-day plot - Dew Point
DEWP
°F
5-day plot - Salinity
SAL
psu
5-day plot - Visibility
VIS
nmi
5-day plot - Tide (above MLLW)
TIDE
ft
2024-05-30 04:24 amWNW 2.9 4.1----30.00- 77.7 86.7----
2024-05-30 04:18 amWNW 2.9 5.1----30.00- 77.7 86.7----
2024-05-30 04:12 am W 4.1 5.1----30.00- 77.9 86.7----
2024-05-30 04:06 am W 4.1 5.1----30.00- 78.1 86.7----
2024-05-30 04:00 am W 4.1 6.0----30.00-0.01 78.3 86.7----
2024-05-30 03:54 am W 2.9 4.1----30.01- 78.3 86.7----
2024-05-30 03:48 amWNW 4.1 4.1----30.01-- 86.7----
2024-05-30 03:42 am W 2.9 4.1----30.01-- 86.7----
2024-05-30 03:36 amWNW 1.9 4.1----30.00-- 86.7----
2024-05-30 03:30 amWNW 2.9 5.1----30.00- 78.1 86.7----
2024-05-30 03:24 amWNW 4.1 5.1----30.00- 78.1 86.7----
2024-05-30 03:18 am W 4.1 5.1----30.00- 77.9 86.7----
2024-05-30 03:12 am W 4.1 5.1----30.00- 77.9 86.7----
2024-05-30 03:06 am W 2.9 5.1----30.00- 77.4 86.7----
2024-05-30 03:00 am NW 2.9 4.1----30.00-0.02 74.7 86.7----
2024-05-30 02:54 amNNW 1.0 2.9----30.01- 74.7 86.7----
2024-05-30 02:48 am- 0.0 1.0----30.01- 75.0 86.7----
2024-05-30 02:42 am- 0.0 1.0----30.00- 74.3 86.7----
2024-05-30 02:36 am- 0.0 0.0----30.01- 74.7 86.7----
2024-05-30 02:30 am- 0.0 0.0----30.01- 74.7 86.7----
2024-05-30 02:24 am- 0.0 0.0----30.01- 75.2 86.7----
2024-05-30 02:18 am- 0.0 1.0----30.01- 75.6 86.7----
2024-05-30 02:12 am- 0.0 1.9----30.01- 76.3 86.7----
2024-05-30 02:06 amSSW 1.9 2.9----30.01- 77.9 86.7----
2024-05-30 02:00 amSSW 1.9 2.9----30.01-0.01 79.5 86.7----
2024-05-30 01:54 amSSW 2.9 4.1----30.01- 79.9 86.7----
2024-05-30 01:48 am SW 2.9 4.1----30.01-- 86.7----
2024-05-30 01:42 amSSW 2.9 4.1----30.01-- 86.7----
2024-05-30 01:36 am SW 1.9 2.9----30.01-- 86.7----
2024-05-30 01:30 amSSW 1.9 2.9----30.01- 78.6 86.7----
2024-05-30 01:24 am S 1.0 1.9----30.01- 78.6 86.7----
2024-05-30 01:18 am S 1.9 4.1----30.01- 78.6 86.7----
2024-05-30 01:12 am S 1.9 2.9----30.01- 78.8 86.7----
2024-05-30 01:06 amSSE 1.9 4.1----30.02- 78.8 86.7----
2024-05-30 01:00 amSSE 2.9 4.1----30.01+0.00 78.6 86.7----
2024-05-30 12:54 am S 1.9 2.9----30.01- 78.6 86.7----
2024-05-30 12:48 am S 1.9 2.9----30.02-- 86.7----
2024-05-30 12:42 am S 1.9 4.1----30.02-- 86.7----
2024-05-30 12:36 amSSE 1.9 4.1----30.03-- 86.7----
2024-05-30 12:30 am S 1.9 2.9----30.03- 78.8 86.5----
2024-05-30 12:24 amSSE 2.9 4.1----30.03- 78.6 86.5----
2024-05-30 12:18 amSSE 2.9 4.1----30.03- 78.6 86.5----
2024-05-30 12:12 am S 1.9 2.9----30.02- 78.4 86.5----
2024-05-30 12:06 am S 1.9 1.9----30.02- 78.3 86.5----
2024-05-30 12:00 am- 0.0 1.0----30.02+0.02 76.6 86.5----
2024-05-29 11:54 pm- 0.0 1.9----30.03- 76.8 86.5----
2024-05-29 11:48 pmSSE 1.9 1.9----30.03- 77.4 86.7----
2024-05-29 11:42 pmSSE 1.9 1.9----30.03- 78.3 86.7----
2024-05-29 11:36 pm SE 1.9 1.9----30.03- 77.5 86.7----
2024-05-29 11:30 pm SE 1.0 1.9----30.03- 77.5 86.7----
2024-05-29 11:24 pm SE 1.9 2.9----30.03- 79.0 86.9----
2024-05-29 11:18 pm SE 2.9 2.9----30.03- 79.5 86.9----
2024-05-29 11:12 pm SE 1.9 2.9----30.03- 79.0 86.9----
2024-05-29 11:06 pm SE 1.9 2.9----30.03- 79.0 86.9----
2024-05-29 11:00 pm SE 1.9 2.9----30.03+0.03 79.0 86.9----
2024-05-29 10:54 pmESE 2.9 4.1----30.02- 79.2 86.9----
2024-05-29 10:48 pm SE 2.9 4.1----30.02- 79.0 86.9----
2024-05-29 10:42 pm SE 2.9 4.1----30.02- 79.0 86.9----
2024-05-29 10:36 pmESE 2.9 4.1----30.02- 79.2 86.9----
2024-05-29 10:30 pm SE 1.9 2.9----30.01- 79.0 86.9----
2024-05-29 10:24 pmESE 1.9 4.1----30.01- 78.6 86.9----
2024-05-29 10:18 pm E 2.9 5.1----30.01- 78.6 86.9----
2024-05-29 10:12 pm E 4.1 5.1----30.01- 78.6 86.9----
2024-05-29 10:06 pm E 4.1 4.1----30.01- 78.3 86.9----
2024-05-29 10:00 pm E 2.9 4.1----30.01+0.01 78.3 86.9----
2024-05-29 09:54 pm E 2.9 2.9----30.01- 78.1 86.9----
2024-05-29 09:48 pm E 2.9 2.9----30.01- 78.1 87.1----
2024-05-29 09:42 pm E 2.9 2.9----30.01- 77.7 86.9----
2024-05-29 09:36 pm E 1.9 2.9----30.01- 78.3 86.9----
2024-05-29 09:30 pm E 2.9 4.1----30.01- 78.4 86.9----
2024-05-29 09:24 pmESE 2.9 4.1----30.01- 78.4 86.9----
2024-05-29 09:18 pmESE 1.9 2.9----30.01- 78.6 86.9----
2024-05-29 09:12 pm E 2.9 4.1----30.00- 78.4 86.9----
2024-05-29 09:06 pm E 2.9 2.9----30.01- 78.3 86.9----
2024-05-29 09:00 pm E 2.9 2.9----30.01+0.01 78.4 86.9----
2024-05-29 08:54 pmENE 2.9 2.9----30.00- 78.4 86.9----
2024-05-29 08:48 pmENE 1.9 2.9----30.00- 78.8 86.9----
2024-05-29 08:42 pmENE 1.9 2.9----30.00- 79.0 86.7----
2024-05-29 08:36 pmENE 1.9 1.9----30.00- 79.0 86.9----
2024-05-29 08:30 pmENE 1.9 2.9----30.00- 79.3 86.9----
2024-05-29 08:24 pmENE 1.9 2.9----30.00- 79.9 86.9----
2024-05-29 08:18 pmENE 1.9 2.9----30.00- 80.4 87.1----
2024-05-29 08:12 pm E 1.9 2.9----30.00- 80.8 87.1----
2024-05-29 08:06 pm E 2.9 4.1----30.00- 81.0 86.9----
2024-05-29 08:00 pm E 2.9 4.1----30.00+0.01 81.1 86.9----
2024-05-29 07:54 pm E 4.1 5.1----30.00- 81.5 86.9----
2024-05-29 07:48 pmENE 2.9 5.1----30.00-- 86.9----
2024-05-29 07:42 pmENE 5.1 6.0----30.00-- 86.9----
2024-05-29 07:36 pmENE 5.1 7.0----30.00-- 87.1----
2024-05-29 07:30 pm E 5.1 7.0----30.00- 82.4 87.1----
2024-05-29 07:24 pm E 5.1 6.0----29.99- 82.6 87.1----
2024-05-29 07:18 pm E 5.1 7.0----29.99- 82.8 87.1----
2024-05-29 07:12 pmENE 6.0 8.9----29.99- 82.9 86.9----
2024-05-29 07:06 pmENE 6.0 7.0----29.99- 82.9 86.9----
2024-05-29 07:00 pmENE 7.0 8.9----29.99+0.00 82.9 86.9----
2024-05-29 06:54 pm E 5.1 7.0----29.99- 83.5 86.9----
2024-05-29 06:48 pm E 6.0 8.9----29.99- 83.7 86.9----
2024-05-29 06:42 pm E 7.0 9.9----29.99- 83.7 86.9----
2024-05-29 06:36 pm E 8.0 9.9----29.99- 83.8 86.9----
2024-05-29 06:30 pmENE 8.9 11.1----29.99- 85.6 86.9----
2024-05-29 06:24 pm NE 8.9 11.1----29.99- 85.3 86.9----
2024-05-29 06:18 pm NE 8.9 11.1----29.99- 85.6 86.9----
2024-05-29 06:12 pm NE 7.0 11.1----29.99- 86.0 86.9----
2024-05-29 06:06 pm NE 8.0 11.1----29.99- 86.2 86.9----
2024-05-29 06:00 pm NE 8.9 13.0----29.99-0.02 86.0 86.9----
2024-05-29 05:54 pm NE 8.9 13.0----29.99- 86.4 86.7----
2024-05-29 05:48 pm NE 9.9 13.0----29.99- 85.8 86.7----
2024-05-29 05:42 pm NE 11.1 15.0----29.99- 86.0 86.7----
2024-05-29 05:36 pm NE 11.1 15.0----29.99- 86.7 86.7----
2024-05-29 05:30 pm NE 11.1 15.0----29.99- 86.7 86.5----
2024-05-29 05:24 pm NE 11.1 15.0----29.99- 86.7 86.4----
2024-05-29 05:18 pm NE 11.1 14.0----29.99- 86.2 86.5----
2024-05-29 05:12 pm NE 12.0 17.1----29.99- 86.7 86.7----
2024-05-29 05:06 pm NE 13.0 15.9----29.99- 86.5 86.5----
2024-05-29 05:00 pmNNE 9.9 15.9----29.99-0.02 87.3 86.5----
2024-05-29 04:54 pm NE 13.0 15.9----29.99- 86.7 86.0----
2024-05-29 04:48 pm NE 11.1 15.0----29.99-- 85.8----
2024-05-29 04:42 pm NE 11.1 15.9----29.99-- 86.2----
2024-05-29 04:36 pmENE 8.9 15.9----29.99-- 86.2----
2024-05-29 04:30 pm NE 9.9 14.0----29.99- 87.3 86.5----
2024-05-29 04:24 pm NE 11.1 15.0----29.99- 87.3 86.5----
2024-05-29 04:18 pmNNE 11.1 15.0----30.00- 87.4 86.9----
2024-05-29 04:12 pmNNE 9.9 17.1----30.00- 87.4 86.9----
2024-05-29 04:06 pm NE 13.0 18.1----30.00- 87.1 86.9----
2024-05-29 04:00 pm NE 13.0 18.1----30.00-0.02 87.1 86.5----
2024-05-29 03:54 pmNNE 13.0 17.1----30.00- 86.9 86.2----
2024-05-29 03:48 pm NE 9.9 18.1----30.00- 87.6 86.4----
2024-05-29 03:42 pmNNE 13.0 18.1----30.00- 86.9 86.4----
2024-05-29 03:36 pm NE 13.0 17.1----30.00- 87.8 86.4----
2024-05-29 03:30 pm NE 13.0 15.9----30.00- 88.3 86.4----
2024-05-29 03:24 pmNNE 11.1 15.9----30.00- 88.3 86.4----
2024-05-29 03:18 pm NE 13.0 17.1----30.00- 87.3 86.4----
2024-05-29 03:12 pm NE 12.0 17.1----30.01- 88.0 86.4----
2024-05-29 03:06 pm NE 12.0 15.0----30.01- 88.2 86.2----
2024-05-29 03:00 pmNNE 11.1 15.9----30.01- 88.7 85.8----
2024-05-29 02:54 pm NE 9.9 14.0----30.01- 89.6 85.8----
2024-05-29 02:48 pmNNE 12.0 15.9----30.01- 89.1 85.8----
2024-05-29 02:42 pm NE 9.9 17.1----30.01- 88.7 85.5----
2024-05-29 02:36 pm NE 11.1 15.0----30.01- 88.5 85.6----
2024-05-29 02:30 pm NE 8.9 13.0----30.01- 89.2 85.6----
2024-05-29 02:24 pmENE 11.1 14.0----30.01- 88.2 85.8----
2024-05-29 02:18 pm NE 11.1 15.9----30.01- 88.7 85.6----
2024-05-29 02:12 pm NE 11.1 14.0----30.01- 88.7 85.6----
2024-05-29 02:06 pm NE 11.1 15.0----30.01- 89.1 86.2----
2024-05-29 02:00 pm NE 8.9 13.0----30.01-0.02 90.5 86.4----
2024-05-29 01:54 pmNNE 7.0 11.1----30.01- 90.5 86.5----
2024-05-29 01:48 pm N 4.1 7.0----30.01- 92.1 86.7----
2024-05-29 01:42 pmNNE 4.1 7.0----30.01- 91.8 86.7----
2024-05-29 01:36 pmNNW 5.1 6.0----30.01- 91.0 86.7----
2024-05-29 01:30 pm N 6.0 8.0------------
2024-05-29 01:24 pmNNE 6.0 8.0------------
2024-05-29 01:18 pmNNE 4.1 7.0----30.01-- 86.4----
2024-05-29 01:12 pm NW 1.9 8.9----30.01-- 86.4----
2024-05-29 01:06 pmNNW 7.0 9.9----30.01-- 86.9----
2024-05-29 01:00 pm N 7.0 11.1----30.02+0.00 89.4 86.9----
2024-05-29 12:54 pm N 7.0 9.9----30.02- 89.8 86.9----
2024-05-29 12:48 pm N 6.0 9.9------- 86.9----
2024-05-29 12:42 pm N 4.1 12.0------- 86.9----
2024-05-29 12:36 pm N 5.1 9.9------- 86.9----
2024-05-29 12:30 pm N 7.0 9.9------ 89.1-----
2024-05-29 12:24 pm N 6.0 12.0------ 88.7-----
2024-05-29 12:18 pm N 5.1 9.9------------
2024-05-29 12:12 pmNNW 5.1 9.9------------
2024-05-29 12:06 pm N 6.0 8.0------------
2024-05-29 12:00 pm N 4.1 11.1------ 89.2-----
2024-05-29 11:54 amNNW 5.1 8.0------ 89.2-----
2024-05-29 11:48 am N 5.1 8.9----30.03-- 86.7----
2024-05-29 11:42 amNNW 5.1 7.0----30.03-- 86.7----
2024-05-29 11:36 am N 5.1 8.9----30.03-- 86.7----
2024-05-29 11:30 amNNW 5.1 8.0------- 86.7----
2024-05-29 11:24 amNNW 7.0 8.9------- 86.7----
2024-05-29 11:18 amNNW 8.0 9.9----30.03- 87.3 86.7----
2024-05-29 11:12 amNNW 7.0 8.9----30.03- 87.1 86.7----
2024-05-29 11:06 amNNW 5.1 9.9----30.03- 86.7 86.9----
2024-05-29 11:00 amNNW 8.0 9.9----30.03+0.00 86.2 86.9----
2024-05-29 10:54 amNNW 7.0 8.9----30.02- 86.2 86.9----
2024-05-29 10:48 am NW 5.1 8.0----30.02-- 86.9----
2024-05-29 10:42 am NW 5.1 6.0----30.02-- 86.9----
2024-05-29 10:36 am NW 5.1 7.0----30.02-- 86.9----
2024-05-29 10:30 am NW 5.1 6.0----30.02- 84.7 87.1----
2024-05-29 10:24 amNNW 4.1 7.0----30.02- 84.9 87.1----
2024-05-29 10:18 am NW 5.1 8.0----30.03- 83.7 87.1----
2024-05-29 10:12 am NW 6.0 8.0----30.03- 83.7 87.1----
2024-05-29 10:06 amWNW 6.0 8.0----30.02- 82.9 87.1----
2024-05-29 10:00 am NW 5.1 7.0----30.02+0.02 83.5 87.1----
2024-05-29 09:54 am NW 4.1 6.0----30.01- 83.7 87.3----
2024-05-29 09:48 am NW 6.0 8.0----30.01- 82.4 87.3----
2024-05-29 09:42 am NW 6.0 7.0----30.02- 81.9 87.3----
2024-05-29 09:36 amWNW 6.0 8.0----30.02- 81.5 87.3----
2024-05-29 09:30 amWNW 6.0 8.9----30.03- 81.7 87.3----
2024-05-29 09:24 amWNW 6.0 8.0----30.03- 81.7 87.3----
2024-05-29 09:18 am NW 6.0 8.9----30.03- 81.3 87.3----
2024-05-29 09:12 amWNW 6.0 8.9----30.03- 81.0 87.3----
2024-05-29 09:06 amWNW 6.0 8.0----30.03- 80.8 87.3----
2024-05-29 09:00 amWNW 5.1 7.0----30.03+0.04 80.8 87.3----
2024-05-29 08:54 am W 6.0 8.0----30.02- 80.6 87.4----
2024-05-29 08:48 am NW 6.0 8.9----30.03- 80.8 87.3----
2024-05-29 08:42 amWNW 7.0 8.9----30.03- 80.2 87.4----
2024-05-29 08:36 amWNW 5.1 8.0----30.02- 80.4 87.4----
2024-05-29 08:30 amWNW 5.1 7.0----30.02- 80.2 87.4----
2024-05-29 08:24 am NW 5.1 8.0----30.02- 80.1 87.4----
2024-05-29 08:18 am NW 5.1 8.0----30.02- 80.1 87.4----
2024-05-29 08:12 am NW 6.0 8.9----30.02- 79.5 87.4----
2024-05-29 08:06 am NW 7.0 8.9----30.02- 79.3 87.4----
2024-05-29 08:00 amWNW 8.0 11.1----30.02+0.06 79.2 87.4----
2024-05-29 07:54 am NW 7.0 11.1----30.02- 79.2 87.4----
2024-05-29 07:48 amWNW 7.0 11.1----30.02-- 87.4----
2024-05-29 07:42 amWNW 7.0 11.1----30.02-- 87.4----
2024-05-29 07:36 amWNW 7.0 11.1----30.02-- 87.4----
2024-05-29 07:30 amWNW 7.0 12.0----30.02- 78.8 87.6----
2024-05-29 07:24 amWNW 7.0 9.9----30.02- 78.8 87.6----
2024-05-29 07:18 amWNW 8.9 12.0----30.01- 78.6 87.6----
2024-05-29 07:12 amWNW 7.0 9.9----30.01- 78.6 87.6----
2024-05-29 07:06 am W 6.0 8.9----30.00- 78.4 87.6----
2024-05-29 07:00 amWNW 6.0 8.9----30.00+0.05 78.3 87.6----
2024-05-29 06:54 am W 5.1 8.9----30.00- 78.3 87.6----
2024-05-29 06:48 am W 6.0 8.0----30.00- 78.3 87.6----
2024-05-29 06:42 am W 5.1 8.0----30.00- 78.1 87.6----
2024-05-29 06:36 am W 5.1 7.0----30.00- 78.1 87.6----
2024-05-29 06:30 am W 5.1 7.0----29.99- 78.3 87.6----
2024-05-29 06:24 amWNW 5.1 8.0----29.99- 78.3 87.6----
2024-05-29 06:18 amWNW 6.0 7.0----29.99- 78.3 87.6----
2024-05-29 06:12 amWNW 6.0 8.0----29.99- 78.3 87.6----
2024-05-29 06:06 am W 6.0 8.0----29.99- 78.3 87.6----
2024-05-29 06:00 am W 6.0 7.0----29.98+0.02 78.3 87.6----
2024-05-29 05:54 am W 5.1 6.0----29.98- 78.4 87.6----
2024-05-29 05:48 am W 5.1 7.0----29.97- 78.4 87.6----
2024-05-29 05:42 am W 6.0 8.0----29.97- 78.3 87.6----
2024-05-29 05:36 am W 5.1 7.0----29.97- 78.4 87.6----
2024-05-29 05:30 am W 5.1 6.0----29.97- 78.3 87.6----
2024-05-29 05:24 am W 5.1 6.0----29.96- 78.4 87.6----
2024-05-29 05:18 am W 4.1 6.0----29.97- 78.4 87.6----
2024-05-29 05:12 am W 5.1 6.0----29.96- 78.4 87.6----
2024-05-29 05:06 am W 4.1 6.0----29.96- 78.4 87.6----
2024-05-29 05:00 amWNW 4.1 6.0----29.96-0.03 78.4 87.6----
2024-05-29 04:54 am W 2.9 6.0----29.96- 78.4 87.6----